Flag for Canada Weather past 2 weeks in Fort Nelson, British Columbia, Canada

Now
30 °F

Passing clouds.


Feels Like: 30 °F
Forecast: 30 / 47 °F
Wind: No wind

Location: Fort Nelson

Current Time: May 4, 2015 at 6:30:02 AM

Latest Report: May 4, 2015 at 6:00 AM


Visibility: 20 mi

Pressure: 30.27 "Hg

Humidity: 75%

Dew point: 23 °F

Location of Fort NelsonLocation

Historic Weather in Fort Nelson — Graph

°F

Fort Nelson temperature yesterday

Maximum temperature yesterday: 41 °F (at 7:00 PM)
Minimum temperature yesterday: 28 °F (at 11:00 PM)
Average temperature yesterday: 34 °F

Past Weeks' High & Low Weather Summary

 TemperatureHumidityPressure
High70 °F (Apr 28, 3:00 PM)100% (Apr 23, 8:00 AM)30.26 "Hg (Apr 23, 8:00 AM)
Low27 °F (Apr 26, 5:00 AM)15% (Apr 29, 4:00 PM)29.36 "Hg (Apr 28, 3:00 PM)
Average44 °F55%29.88 "Hg
* Reported Apr 19 5:00 AM — May 4 5:00 AM, Fort Nelson, Weather by CustomWeather, © 2015

Note: Actual official high and low records may vary slightly from our data, if they occured in-between our weather recording intervals... More about our weather records

Advertising

Fort Nelson weather history for previous 24 hours

 ConditionsComfort  
Time TempWeatherWind HumidityBarometerVisibility
5:00 AM
Mon, May 4
28 °FPassing clouds.2 mph86%30.26 "Hg15 mi
4:00 AM28 °FPassing clouds.3 mph86%30.26 "Hg15 mi
3:00 AM28 °FPassing clouds.3 mph86%30.26 "Hg15 mi
2:00 AM30 °FPassing clouds.2 mph80%30.25 "Hg15 mi
1:00 AM30 °FPassing clouds.5 mph80%30.25 "Hg15 mi
12:00 AM30 °FPassing clouds.3 mph80%30.24 "Hg15 mi
11:00 PM
Sun, May 3
28 °FPassing clouds.3 mph86%30.24 "Hg15 mi
10:00 PM32 °FPartly sunny.6 mph80%30.23 "Hg15 mi
9:00 PM37 °FPartly sunny.3 mph60%30.22 "Hg15 mi
8:00 PM39 °FScattered showers. Partly sunny.6 mph52%30.21 "Hg15 mi
7:00 PM41 °FScattered showers. Partly sunny.2 mph49%30.20 "Hg15 mi
6:00 PM39 °FPartly sunny.3 mph52%30.21 "Hg15 mi
5:00 PM39 °FOvercast.7 mph56%30.21 "Hg15 mi
4:00 PM39 °FPartly sunny.7 mph56%30.22 "Hg15 mi
3:00 PM37 °FPartly sunny.5 mph65%30.22 "Hg20 mi
2:00 PM36 °FPartly sunny.5 mph75%30.23 "Hg15 mi
1:00 PM36 °FLight snow. Mostly cloudy.6 mph70%30.23 "Hg5 mi
12:00 PM34 °FLight snow. Fog.6 mph87%30.23 "Hg3 mi
11:00 AM32 °FLight snow. Ice fog.5 mph93%30.23 "Hg1 mi
10:00 AM30 °FLight snow. Ice fog.6 mph93%30.23 "Hg3 mi
9:46 AM30 °FLight snow. Ice fog.8 mph86%30.22 "Hg1 mi
9:00 AM30 °FLight snow. Ice fog.6 mph93%30.22 "Hg1 mi
8:52 AM30 °FLight snow. Ice fog.5 mph93%30.22 "Hg1 mi
8:00 AM30 °FLight snow. Overcast.5 mph93%30.22 "Hg1 mi
7:00 AM30 °FLight snow. Overcast.7 mph93%30.21 "Hg1 mi
6:00 AM30 °FLight snow. Passing clouds.6 mph93%30.20 "Hg3 mi
Weather by CustomWeather, © 2015

See weather overviewHow to use our weather pages